This is the latest recevied weather packets stored in our database for station/object N0LTM. If no packets are shown the sender has not sent any weather packets the latest 10 day(s).
| Time | Temp. | Humidity | Pressure | Rain* | Wind** | Luminosity | Snow |
|---|---|---|---|---|---|---|---|
| 1777669258 | 7.78° C | 60% | 1017.6 hPa | 0 mm | - | - | - |
| 1777668366 | 8.89° C | 51% | 1017.4 hPa | 0 mm | - | - | - |
| 1777667755 | 8.89° C | 48% | 1017.4 hPa | 0 mm | - | - | - |
| 1777667461 | 8.89° C | 51% | 1017.4 hPa | 0 mm | - | - | - |
| 1777663858 | 8.89° C | 48% | 1017.4 hPa | 0 mm | - | - | - |
| 1777660853 | 9.44° C | 44% | 1017 hPa | 0 mm | - | - | - |
| 1777660268 | 9.44° C | 48% | 1016.9 hPa | 0 mm | - | - | - |
| 1777659952 | 8.89° C | 46% | 1017 hPa | 0 mm | - | - | - |
| 1777656666 | 10.56° C | 46% | 1016.8 hPa | 0 mm | - | - | - |
| 1777655156 | 10.56° C | 47% | 1016.8 hPa | 0 mm | - | - | - |
| 1777649156 | 8.33° C | 54% | 1017 hPa | 0 mm | - | - | - |
| 1777647359 | 8.89° C | 56% | 1016.8 hPa | 0 mm | - | - | - |
| 1777647055 | 9.44° C | 59% | 1016.8 hPa | 0 mm | - | - | - |
| 1777646455 | 8.33° C | 64% | 1016.8 hPa | 0 mm | - | - | - |
| 1777645858 | 7.78° C | 71% | 1016.8 hPa | 0 mm | - | - | - |
| 1777644358 | 7.78° C | 91% | 1016.9 hPa | 0 mm | - | - | - |
| 1777644057 | 7.22° C | 91% | 1016.8 hPa | 0 mm | - | - | - |
| 1777643452 | 6.67° C | 95% | 1016.7 hPa | 0 mm | - | - | - |
| 1777643170 | 6.11° C | 93% | 1016.7 hPa | 0 mm | - | - | - |
| 1777641956 | 5.56° C | 95% | 1016.7 hPa | 0 mm | - | - | - |
| 1777640460 | 5.56° C | 96% | 1016.6 hPa | 0 mm | - | - | - |
| 1777639854 | 5° C | 96% | 1016.6 hPa | 0 mm | - | - | - |
| 1777635656 | 4.44° C | 96% | 1016.1 hPa | 0 mm | - | - | - |
| 1777634156 | 3.33° C | 95% | 1016 hPa | 0 mm | - | - | - |
| 1777632420 | 3.89° C | 95% | 1015.7 hPa | 0 mm | - | - | - |
* Rain latest hour (hover to see other rain measurements)
** Current wind speed in m/s (hover to see current wind gust speed)